Time,TemperatureF,DewpointF,PressureIn,WindDirection,WindDirectionDegrees,WindSpeedMPH,WindSpeedGustMPH,Humidity,HourlyPrecipIn,Conditions,Clouds,dailyrainin,SoftwareType,DateUTC
2013-03-18 00:14:00,34.1,31.0,29.89,East,98,3.0,7.0,87,0.00,,,0.00,weatherlink.com 1.10,2013-03-18 05:14:00,
2013-03-18 00:29:00,33.6,31.0,29.88,East,101,1.0,8.0,89,0.00,,,0.00,weatherlink.com 1.10,2013-03-18 05:29:00,
2013-03-18 00:45:00,33.4,31.0,29.87,East,84,3.0,7.0,90,0.00,,,0.00,weatherlink.com 1.10,2013-03-18 05:45:00,
2013-03-18 01:00:00,33.2,31.0,29.86,East,82,2.0,9.0,90,0.01,,,0.01,weatherlink.com 1.10,2013-03-18 06:00:00,
2013-03-18 01:15:00,33.0,30.0,29.85,East,101,7.0,7.0,90,0.01,,,0.01,weatherlink.com 1.10,2013-03-18 06:15:00,
2013-03-18 01:33:00,32.8,31.0,29.83,East,95,2.0,9.0,91,0.01,,,0.01,weatherlink.com 1.10,2013-03-18 06:33:00,
2013-03-18 01:45:00,32.7,30.0,29.82,ESE,106,4.0,10.0,91,0.01,,,0.01,weatherlink.com 1.10,2013-03-18 06:45:00,
2013-03-18 02:00:00,32.7,31.0,29.82,ESE,105,5.0,11.0,92,0.00,,,0.01,weatherlink.com 1.10,2013-03-18 07:00:00,
2013-03-18 02:15:00,32.6,31.0,29.82,SE,140,3.0,8.0,92,0.00,,,0.00,weatherlink.com 1.10,2013-03-18 07:15:00,
2013-03-18 02:30:00,32.7,31.0,29.81,NE,51,3.0,12.0,93,0.00,,,0.00,weatherlink.com 1.10,2013-03-18 07:30:00,
2013-03-18 02:45:00,32.7,31.0,29.82,NE,40,2.0,12.0,92,0.00,,,0.00,weatherlink.com 1.10,2013-03-18 07:45:00,
2013-03-18 03:00:00,32.7,31.0,29.81,ENE,71,2.0,6.0,93,0.00,,,0.00,weatherlink.com 1.10,2013-03-18 08:00:00,
2013-03-18 03:15:00,32.7,31.0,29.81,NE,49,0.0,7.0,93,0.01,,,0.01,weatherlink.com 1.10,2013-03-18 08:15:00,
2013-03-18 03:30:00,32.6,31.0,29.81,ENE,78,1.0,8.0,94,0.01,,,0.01,weatherlink.com 1.10,2013-03-18 08:30:00,
2013-03-18 03:45:00,32.5,31.0,29.79,ENE,76,1.0,7.0,94,0.01,,,0.01,weatherlink.com 1.10,2013-03-18 08:45:00,
2013-03-18 04:00:00,32.3,31.0,29.78,NE,44,3.0,7.0,95,0.01,,,0.01,weatherlink.com 1.10,2013-03-18 09:00:00,
2013-03-18 04:15:00,32.1,31.0,29.77,ENE,65,2.0,8.0,95,0.01,,,0.02,weatherlink.com 1.10,2013-03-18 09:15:00,
2013-03-18 04:30:00,32.1,31.0,29.77,ENE,72,2.0,8.0,95,0.01,,,0.02,weatherlink.com 1.10,2013-03-18 09:30:00,
2013-03-18 04:45:00,32.1,31.0,29.77,SE,134,0.0,5.0,95,0.01,,,0.02,weatherlink.com 1.10,2013-03-18 09:45:00,
2013-03-18 05:00:00,32.0,31.0,29.76,East,80,0.0,8.0,95,0.01,,,0.02,weatherlink.com 1.10,2013-03-18 10:00:00,
2013-03-18 05:15:00,31.9,31.0,29.75,SE,127,1.0,5.0,96,0.00,,,0.02,weatherlink.com 1.10,2013-03-18 10:15:00,
2013-03-18 05:30:00,31.9,31.0,29.76,NE,56,3.0,6.0,96,0.00,,,0.02,weatherlink.com 1.10,2013-03-18 10:30:00,
2013-03-18 05:45:00,31.9,31.0,29.75,ESE,107,0.0,4.0,96,0.00,,,0.02,weatherlink.com 1.10,2013-03-18 10:45:00,
2013-03-18 06:00:00,31.9,31.0,29.75,East,90,0.0,3.0,96,0.00,,,0.02,weatherlink.com 1.10,2013-03-18 11:00:00,
2013-03-18 06:15:00,31.9,31.0,29.76,ENE,63,0.0,3.0,96,0.00,,,0.02,weatherlink.com 1.10,2013-03-18 11:15:00,
2013-03-18 06:30:00,31.9,31.0,29.75,NE,56,0.0,5.0,96,0.01,,,0.03,weatherlink.com 1.10,2013-03-18 11:30:00,
2013-03-18 06:45:00,31.9,31.0,29.75,NNE,12,1.0,5.0,96,0.01,,,0.03,weatherlink.com 1.10,2013-03-18 11:45:00,
2013-03-18 07:00:00,31.9,31.0,29.75,East,94,2.0,4.0,96,0.01,,,0.03,weatherlink.com 1.10,2013-03-18 12:00:00,
2013-03-18 07:15:00,31.8,31.0,29.73,ESE,102,0.0,4.0,96,0.01,,,0.03,weatherlink.com 1.10,2013-03-18 12:15:00,
2013-03-18 07:30:00,31.9,31.0,29.74,ESE,107,1.0,4.0,96,0.00,,,0.03,weatherlink.com 1.10,2013-03-18 12:30:00,
2013-03-18 07:46:00,31.9,31.0,29.74,East,81,0.0,3.0,97,0.00,,,0.03,weatherlink.com 1.10,2013-03-18 12:46:00,
2013-03-18 08:00:00,32.0,31.0,29.75,ESE,110,0.0,3.0,97,0.00,,,0.03,weatherlink.com 1.10,2013-03-18 13:00:00,
2013-03-18 08:15:00,32.0,31.0,29.75,ESE,110,0.0,0.0,97,0.00,,,0.03,weatherlink.com 1.10,2013-03-18 13:15:00,
2013-03-18 08:30:00,32.0,31.0,29.75,ESE,110,0.0,0.0,97,0.00,,,0.03,weatherlink.com 1.10,2013-03-18 13:30:00,
2013-03-18 08:45:00,32.1,31.0,29.75,ESE,110,0.0,0.0,97,0.00,,,0.03,weatherlink.com 1.10,2013-03-18 13:45:00,
2013-03-18 09:00:00,32.3,32.0,29.76,ESE,110,0.0,0.0,97,0.00,,,0.03,weatherlink.com 1.10,2013-03-18 14:00:00,
2013-03-18 09:15:00,32.5,32.0,29.75,NNW,333,0.0,2.0,97,0.00,,,0.03,weatherlink.com 1.10,2013-03-18 14:15:00,
2013-03-18 09:30:00,32.9,32.0,29.74,NNW,343,0.0,3.0,97,0.01,,,0.04,weatherlink.com 1.10,2013-03-18 14:30:00,
2013-03-18 09:45:00,33.4,33.0,29.74,NNW,337,2.0,3.0,97,0.01,,,0.04,weatherlink.com 1.10,2013-03-18 14:45:00,
2013-03-18 10:00:00,33.8,33.0,29.75,West,277,3.0,4.0,97,0.01,,,0.04,weatherlink.com 1.10,2013-03-18 15:00:00,
2013-03-18 10:15:00,34.0,33.0,29.75,WNW,289,3.0,5.0,96,0.01,,,0.04,weatherlink.com 1.10,2013-03-18 15:15:00,
2013-03-18 10:30:00,34.1,33.0,29.75,NW,311,5.0,8.0,95,0.00,,,0.04,weatherlink.com 1.10,2013-03-18 15:30:00,
2013-03-18 10:45:00,34.4,33.0,29.75,WNW,301,4.0,6.0,95,0.00,,,0.04,weatherlink.com 1.10,2013-03-18 15:45:00,
2013-03-18 11:00:00,34.6,33.0,29.76,West,277,2.0,6.0,95,0.00,,,0.04,weatherlink.com 1.10,2013-03-18 16:00:00,
2013-03-18 11:15:00,34.7,34.0,29.75,WNW,284,3.0,11.0,95,0.00,,,0.04,weatherlink.com 1.10,2013-03-18 16:15:00,
2013-03-18 11:30:00,35.3,34.0,29.75,West,267,7.0,12.0,94,0.00,,,0.04,weatherlink.com 1.10,2013-03-18 16:30:00,
2013-03-18 11:45:00,35.5,34.0,29.75,West,271,6.0,13.0,94,0.00,,,0.04,weatherlink.com 1.10,2013-03-18 16:45:00,
2013-03-18 12:01:00,35.7,34.0,29.75,West,271,8.0,13.0,94,0.00,,,0.04,weatherlink.com 1.10,2013-03-18 17:01:00,
2013-03-18 12:16:00,36.1,34.0,29.76,West,269,11.0,15.0,92,0.00,,,0.04,weatherlink.com 1.10,2013-03-18 17:16:00,
2013-03-18 12:31:00,36.6,34.0,29.75,WNW,296,6.0,14.0,91,0.00,,,0.04,weatherlink.com 1.10,2013-03-18 17:31:00,
2013-03-18 12:46:00,37.1,35.0,29.76,West,263,9.0,16.0,90,0.00,,,0.04,weatherlink.com 1.10,2013-03-18 17:46:00,
2013-03-18 13:01:00,37.5,35.0,29.77,WNW,284,6.0,14.0,89,0.00,,,0.04,weatherlink.com 1.10,2013-03-18 18:01:00,
2013-03-18 13:16:00,37.8,35.0,29.77,WNW,300,9.0,18.0,88,0.00,,,0.04,weatherlink.com 1.10,2013-03-18 18:16:00,
2013-03-18 14:31:00,39.1,35.0,29.77,West,280,10.0,14.0,85,0.00,,,0.04,weatherlink.com 1.10,2013-03-18 19:31:00,
2013-03-18 15:02:00,40.1,35.0,29.76,West,262,13.0,18.0,81,0.01,,,0.05,weatherlink.com 1.10,2013-03-18 20:02:00,
2013-03-18 15:16:00,41.8,36.0,29.76,NW,313,5.0,14.0,79,0.01,,,0.05,weatherlink.com 1.10,2013-03-18 20:16:00,
2013-03-18 15:31:00,42.0,35.0,29.76,WNW,294,10.0,16.0,77,0.01,,,0.05,weatherlink.com 1.10,2013-03-18 20:31:00,
2013-03-18 15:46:00,42.5,35.0,29.75,West,272,13.0,20.0,75,0.01,,,0.05,weatherlink.com 1.10,2013-03-18 20:46:00,
2013-03-18 16:01:00,43.3,35.0,29.76,West,279,15.0,17.0,73,0.00,,,0.05,weatherlink.com 1.10,2013-03-18 21:01:00,
2013-03-18 16:16:00,45.2,34.0,29.76,WNW,283,15.0,25.0,64,0.00,,,0.05,weatherlink.com 1.10,2013-03-18 21:16:00,
2013-03-18 16:31:00,44.6,32.0,29.76,WNW,286,14.0,22.0,62,0.00,,,0.05,weatherlink.com 1.10,2013-03-18 21:31:00,
2013-03-18 16:46:00,44.7,27.0,29.78,West,268,20.0,31.0,51,0.00,,,0.05,weatherlink.com 1.10,2013-03-18 21:46:00,
2013-03-18 17:16:00,44.0,28.0,29.79,West,265,6.0,25.0,54,0.00,,,0.05,weatherlink.com 1.10,2013-03-18 22:16:00,
2013-03-18 17:31:00,43.2,27.0,29.80,WNW,288,24.0,28.0,53,0.00,,,0.05,weatherlink.com 1.10,2013-03-18 22:31:00,
2013-03-18 17:46:00,42.4,25.0,29.82,West,271,17.0,25.0,51,0.00,,,0.05,weatherlink.com 1.10,2013-03-18 22:46:00,
2013-03-18 18:01:00,41.9,25.0,29.82,West,259,10.0,27.0,52,0.00,,,0.05,weatherlink.com 1.10,2013-03-18 23:01:00,
2013-03-18 18:16:00,41.0,27.0,29.84,WNW,287,13.0,26.0,57,0.00,,,0.05,weatherlink.com 1.10,2013-03-18 23:16:00,
2013-03-18 18:31:00,39.2,27.0,29.85,NW,315,10.0,21.0,63,0.00,,,0.05,weatherlink.com 1.10,2013-03-18 23:31:00,
2013-03-18 18:46:00,37.2,27.0,29.86,WNW,290,13.0,18.0,66,0.00,,,0.05,weatherlink.com 1.10,2013-03-18 23:46:00,
2013-03-18 19:01:00,35.7,26.0,29.87,NW,307,9.0,16.0,68,0.00,,,0.05,weatherlink.com 1.10,2013-03-19 00:01:00,
2013-03-18 19:16:00,34.4,25.0,29.88,NNW,336,5.0,17.0,68,0.00,,,0.05,weatherlink.com 1.10,2013-03-19 00:16:00,
2013-03-18 19:31:00,33.2,24.0,29.89,WNW,286,10.0,15.0,69,0.00,,,0.05,weatherlink.com 1.10,2013-03-19 00:31:00,
2013-03-18 19:47:00,32.5,24.0,29.90,NW,304,8.0,15.0,71,0.00,,,0.05,weatherlink.com 1.10,2013-03-19 00:47:00,
2013-03-18 20:02:00,31.9,24.0,29.91,WNW,296,4.0,13.0,72,0.00,,,0.05,weatherlink.com 1.10,2013-03-19 01:02:00,
2013-03-18 20:17:00,31.3,23.0,29.92,NW,319,3.0,18.0,72,0.00,,,0.05,weatherlink.com 1.10,2013-03-19 01:17:00,
2013-03-18 20:47:00,30.0,22.0,29.95,NW,309,12.0,20.0,72,0.00,,,0.05,weatherlink.com 1.10,2013-03-19 01:47:00,
2013-03-18 21:02:00,29.5,22.0,29.95,WNW,301,17.0,18.0,72,0.00,,,0.05,weatherlink.com 1.10,2013-03-19 02:02:00,
2013-03-18 21:17:00,29.2,22.0,29.96,WNW,299,10.0,18.0,73,0.00,,,0.05,weatherlink.com 1.10,2013-03-19 02:17:00,
2013-03-18 21:32:00,28.9,21.0,29.96,NW,320,12.0,14.0,73,0.00,,,0.05,weatherlink.com 1.10,2013-03-19 02:32:00,
2013-03-18 21:47:00,28.6,21.0,29.97,NW,306,10.0,14.0,74,0.00,,,0.05,weatherlink.com 1.10,2013-03-19 02:47:00,
2013-03-18 22:02:00,28.1,21.0,29.98,NNW,337,9.0,12.0,76,0.00,,,0.05,weatherlink.com 1.10,2013-03-19 03:02:00,
2013-03-18 22:19:00,27.6,21.0,29.99,NW,321,9.0,18.0,76,0.00,,,0.05,weatherlink.com 1.10,2013-03-19 03:19:00,
2013-03-18 22:32:00,27.4,20.0,30.00,WNW,297,9.0,19.0,75,0.00,,,0.05,weatherlink.com 1.10,2013-03-19 03:32:00,
2013-03-18 22:47:00,27.2,20.0,30.00,West,281,9.0,16.0,75,0.00,,,0.05,weatherlink.com 1.10,2013-03-19 03:47:00,
2013-03-18 23:02:00,26.9,20.0,30.01,NW,325,6.0,14.0,74,0.00,,,0.05,weatherlink.com 1.10,2013-03-19 04:02:00,
2013-03-18 23:17:00,26.7,20.0,30.01,West,277,10.0,14.0,75,0.00,,,0.05,weatherlink.com 1.10,2013-03-19 04:17:00,
2013-03-18 23:32:00,27.0,19.0,30.00,WNW,287,10.0,16.0,71,0.00,,,0.05,weatherlink.com 1.10,2013-03-19 04:32:00,
2013-03-18 23:47:00,27.5,17.0,30.00,WNW,303,11.0,19.0,66,0.00,,,0.05,weatherlink.com 1.10,2013-03-19 04:47:00,